sat.trackr.live / text

‹ back to catalog

STARLINK-1624

NORAD 46130 · 2020-057P

PAYLOAD ACTIVE UNKNOWN

§ Identity

Operator
Country
US
Launch date
2020-08-18
Launch site
AFETR
Launch vehicle
Mass (kg)
RCS (m²)

Purposes: comms

External: N2YO · Heavens-Above · Gunter

§ Orbital elements

Epoch: 2026-05-27T00:16:12.971136Z

Period
87.62 min
Inclination
53.0127°
Eccentricity
0.0005715
Mean motion
16.43550406 rev/d
Perigee alt
152.6 km
Apogee alt
160.1 km
Semi-major
6,534.5 km
B*
4.5513e-4
RAAN
195.9911°
Arg perigee
310.4290°
Mean anomaly
49.6259°
Rev number
32,092

§ Raw data

STARLINK-16241 46130U 20057P   26147.01126124  .11295235  12524-4  45513-3 0  99922 46130  53.0127 195.9911 0005715 310.4290  49.6259 16.43550406320921

JSON: /api/v1/satellites/46130 · /tle

For live sub-satellite position, see the globe view (requires WebGL).

§ Visibility from observer

Set your observer location to see the next 7 days of passes ≥ 10°. The values pass through the URL so the page stays shareable.

No JS? Fill the form by hand. The geolocation button needs JavaScript.